Temperature
2 3 3 3 3 4 3 3 3 4 5 5 5 5 5 5 5 5 5 5 6 6 6 6 6 6 6 6 6 6 6 6 6 6 6 6 6 5 5 5 5 5 5 5
1 2 2 2 3 3 4 4 4 4 4 5 4 4 4 4 5 4 4 5 5 5 5 6 6 6 6 6 6 6 6 6 5 5 5 5 5 5 5 5 5 5 5 5
1 2 2 2 2 3 3 3 4 4 4 4 3 3 3 4 4 4 4 4 4 5 5 5 5 5 5 5 5 5 5 5 5 5 5 5 5 5 4 4 4 4 4 4
0 1 1 2 3 3 3 3 3 3 4 3 3 3 3 4 3 3 3 4 4 4 4 4 5 5 5 5 5 5 5 5 5 5 4 4 4 4 4 4 4 4 4 4
-0 -0 1 2 2 1 2 2 2 3 3 2 3 2 2 3 3 3 3 3 3 3 4 4 4 4 4 4 4 4 4 4 4 4 4 4 4 3 3 3 3 3 3 3
-1 -0 -0 1 1 1 2 1 1 1 2 1 2 2 1 2 2 2 2 2 3 3 3 3 3 3 3 4 4 4 4 4 4 3 3 3 3 3 3 3 2 2 2 2
-1 -1 -1 0 0 1 1 1 1 1 1 1 1 2 1 1 1 1 1 1 2 2 2 2 3 3 3 3 3 3 3 3 3 3 3 3 3 2 2 2 2 2 2 2
-1 -2 -1 -0 -0 -0 -0 -0 -0 0 0 0 0 0 -0 -0 -0 -0 0 0 1 1 1 1 2 2 2 2 2 2 2 2 2 2 2 2 2 2 2 1 1 1 1 1
-2 -1 -1 -1 -1 -1 -1 -1 -1 -1 -1 -1 -1 -1 -1 -1 -1 -1 -1 -1 -0 -0 -0 0 1 1 1 1 1 1 1 1 1 1 1 1 1 1 1 1 0 0 0 0
-2 -2 -2 -2 -1 -1 -1 -1 -1 -1 -1 -1 -2 -2 -2 -2 -2 -2 -2 -2 -1 -1 -1 -1 -1 -0 -0 -0 0 0 0 0 0 0 0 0 0 0 0 -0 -0 -0 -1 -1
-3 -3 -2 -2 -2 -2 -2 -2 -2 -2 -2 -2 -2 -3 -3 -3 -3 -3 -3 -2 -2 -2 -2 -2 -1 -1 -1 -1 -1 -0 -0 -0 -0 -0 -0 -0 -1 -1 -1 -1 -1 -1 -1 -1
-3 -3 -3 -3 -2 -2 -2 -2 -2 -2 -2 -3 -3 -3 -3 -3 -3 -3 -3 -3 -2 -2 -2 -2 -2 -2 -2 -2 -1 -1 -1 -1 -1 -1 -1 -1 -1 -1 -1 -1 -1 -2 -2 -2
-4 -3 -3 -3 -3 -3 -3 -3 -3 -3 -3 -3 -3 -3 -3 -4 -3 -3 -3 -3 -3 -3 -3 -3 -3 -2 -2 -2 -2 -2 -2 -2 -2 -2 -2 -2 -2 -2 -2 -2 -2 -2 -2 -2
-4 -4 -4 -4 -4 -4 -3 -3 -3 -3 -4 -4 -4 -4 -4 -4 -4 -3 -3 -3 -3 -3 -3 -3 -3 -3 -3 -3 -2 -2 -2 -2 -2 -2 -2 -2 -2 -3 -3 -2 -2 -2 -3 -3
-4 -4 -4 -4 -4 -4 -4 -4 -4 -4 -4 -4 -4 -4 -4 -4 -4 -4 -4 -4 -3 -3 -3 -3 -3 -3 -3 -3 -3 -3 -3 -3 -3 -3 -3 -3 -3 -3 -3 -3 -3 -3 -3 -3
-4 -4 -4 -5 -5 -5 -5 -5 -5 -5 -5 -5 -4 -4 -4 -4 -4 -4 -4 -4 -4 -4 -4 -4 -4 -4 -4 -4 -4 -3 -3 -4 -4 -4 -4 -4 -4 -4 -4 -4 -4 -4 -4 -4
-5 -5 -5 -5 -5 -5 -5 -5 -5 -5 -5 -5 -5 -5 -5 -5 -5 -5 -5 -5 -4 -4 -4 -4 -4 -4 -4 -4 -4 -4 -4 -4 -4 -4 -4 -4 -4 -4 -4 -4 -4 -4 -4 -4
-6 -6 -6 -6 -6 -6 -5 -5 -5 -5 -5 -5 -5 -5 -5 -5 -5 -5 -5 -5 -5 -5 -5 -5 -5 -5 -5 -5 -5 -5 -5 -5 -5 -5 -5 -5 -5 -5 -5 -5 -5 -5 -5 -5
-6 -6 -6 -6 -6 -6 -6 -6 -6 -6 -5 -5 -5 -5 -5 -5 -6 -6 -6 -5 -5 -5 -5 -6 -5 -5 -5 -5 -5 -5 -5 -5 -5 -5 -5 -5 -5 -5 -5 -5 -5 -6 -6 -6
-7 -6 -6 -6 -6 -6 -6 -6 -6 -6 -6 -6 -6 -6 -6 -6 -6 -6 -6 -6 -6 -6 -6 -6 -6 -6 -6 -6 -6 -6 -6 -6 -6 -6 -6 -6 -6 -6 -6 -6 -6 -6 -6 -6
-7 -7 -7 -7 -7 -7 -7 -7 -6 -6 -6 -6 -6 -6 -7 -7 -6 -6 -6 -6 -6 -6 -6 -6 -6 -6 -6 -6 -6 -6 -6 -6 -6 -6 -6 -6 -6 -6 -6 -6 -7 -7 -7 -7
-8 -8 -7 -7 -7 -7 -7 -7 -7 -7 -7 -7 -7 -7 -7 -7 -7 -7 -7 -7 -7 -7 -7 -7 -7 -7 -7 -7 -7 -7 -7 -7 -7 -7 -7 -7 -7 -7 -7 -7 -7 -7 -7 -7
-8 -8 -8 -8 -8 -8 -8 -8 -8 -8 -8 -8 -8 -8 -8 -7 -8 -8 -7 -7 -7 -7 -7 -7 -7 -7 -7 -7 -7 -7 -7 -7 -7 -7 -7 -7 -7 -7 -7 -7 -7 -7 -7 -7
-9 -9 -8 -8 -8 -8 -8 -8 -8 -8 -8 -8 -8 -8 -8 -8 -8 -8 -8 -8 -8 -8 -8 -8 -8 -8 -8 -8 -8 -8 -8 -7 -7 -7 -7 -7 -7 -7 -8 -7 -7 -7 -7 -7
-9 -9 -9 -9 -9 -9 -9 -9 -9 -9 -9 -9 -9 -9 -9 -9 -9 -9 -9 -8 -8 -8 -8 -8 -8 -8 -8 -8 -8 -8 -8 -8 -8 -8 -8 -8 -8 -8 -8 -8 -8 -8 -8 -8
-10 -10 -10 -10 -10 -10 -10 -10 -10 -10 -10 -9 -9 -9 -9 -9 -9 -9 -9 -9 -9 -9 -9 -9 -9 -9 -9 -8 -8 -8 -8 -8 -8 -8 -8 -8 -8 -8 -8 -8 -8 -8 -8 -8
-10 -10 -10 -10 -10 -10 -10 -10 -10 -10 -10 -10 -10 -10 -10 -10 -10 -10 -9 -9 -9 -9 -9 -9 -9 -9 -9 -9 -9 -9 -9 -9 -9 -9 -9 -9 -9 -9 -8 -8 -8 -8 -8 -8
Wind_Speed
8 7 5 6 8 8 8 9 8 8 7 8 5 3 2 1 2 3 3 3 3 3 2 2 2 3 4 5 6 7 7 7 7 7 6 6 6 5 5 5 5 5 5 5
7 6 5 7 8 9 10 8 8 7 8 6 3 1 2 3 4 4 3 3 3 3 3 2 2 2 2 4 5 6 7 7 6 6 6 6 6 5 5 5 4 4 4 5
5 4 2 5 6 7 5 5 7 10 9 3 2 3 5 5 4 4 3 3 3 3 2 2 2 2 3 3 5 6 6 6 5 6 6 5 5 5 5 5 4 4 4 4
2 0 4 5 2 2 3 4 4 4 4 3 4 2 1 2 3 3 2 1 2 2 2 1 1 1 2 3 4 5 5 5 5 6 5 5 5 5 4 4 4 4 4 4
2 3 4 4 4 2 2 4 3 4 3 1 1 2 2 2 2 2 1 2 2 2 2 2 2 2 3 3 4 5 5 5 5 6 6 5 5 4 3 3 3 3 3 4
2 2 3 3 7 7 0 3 4 2 1 1 2 2 3 1 2 3 2 2 2 2 3 3 2 3 4 3 3 4 4 4 4 5 5 5 5 4 3 3 3 3 2 3
2 2 2 5 8 4 2 4 6 3 1 2 2 2 2 3 4 4 4 4 4 4 4 2 2 4 4 3 2 2 3 3 3 3 4 4 4 3 3 3 2 2 2 2
1 1 3 6 5 2 3 5 5 4 2 3 4 6 6 6 6 6 6 5 5 5 5 4 3 4 4 3 1 2 3 4 3 3 2 3 4 3 3 3 3 2 2 2
1 1 3 4 3 4 4 4 4 4 3 5 6 6 6 6 6 6 6 5 5 6 6 5 4 5 4 2 2 3 4 3 3 3 2 2 3 3 2 2 2 2 2 3
1 2 4 6 6 7 6 5 5 5 5 6 6 6 6 6 6 6 6 6 5 6 6 5 5 5 4 3 3 4 4 3 3 2 2 1 1 2 2 2 2 2 3 3
1 3 4 6 7 6 7 7 7 7 7 6 7 7 6 6 6 5 5 5 5 5 5 5 5 5 5 4 4 4 4 3 2 2 2 1 1 0 2 2 4 3 3 3
1 3 2 3 5 6 6 7 6 7 8 7 6 6 6 6 5 5 5 5 5 6 5 5 5 5 5 4 3 3 3 2 1 1 1 1 0 1 2 2 3 3 4 4
1 3 2 3 5 6 6 6 6 7 7 7 7 6 6 6 5 5 5 5 4 4 4 4 4 4 4 3 3 3 2 1 1 1 0 0 0 1 2 3 3 3 4 5
3 4 4 5 5 6 7 7 7 8 7 7 6 6 6 6 5 5 5 4 4 4 4 3 3 4 3 3 3 2 2 1 1 0 0 1 1 1 2 2 3 3 4 5
6 5 3 4 6 7 7 7 8 7 7 7 6 6 6 6 5 5 4 4 4 5 4 4 4 4 4 3 3 2 1 1 1 1 1 1 1 1 2 2 2 3 3 4
4 5 5 6 6 6 6 6 6 5 5 5 5 5 5 4 4 4 5 4 4 4 4 4 4 4 4 3 3 2 2 2 1 1 1 1 1 1 2 2 2 3 3 3
4 4 4 4 5 5 5 4 4 3 4 4 4 4 4 4 5 5 5 4 4 3 4 4 4 4 3 3 2 1 1 2 3 1 1 1 2 2 2 2 3 3 4 5
2 2 1 1 2 3 4 4 4 3 3 3 3 3 4 3 3 3 4 4 4 4 4 4 3 3 3 3 2 2 1 2 2 2 2 2 2 2 2 3 3 4 4 5
5 4 4 3 2 2 2 3 3 3 3 3 3 3 2 2 2 3 3 3 3 4 5 4 5 4 3 4 3 2 2 2 2 2 2 3 3 3 3 3 3 4 4 4
5 5 5 5 4 3 2 2 2 3 3 2 2 2 3 3 3 3 3 3 3 3 4 4 4 3 3 3 4 1 2 2 2 2 2 2 3 3 3 4 4 4 4 4
5 5 5 4 4 4 3 2 2 2 3 3 2 2 2 3 3 2 2 3 4 3 3 5 3 3 3 3 3 2 2 2 2 3 3 3 3 3 4 4 4 4 4 4
4 4 4 4 4 4 4 3 2 2 3 3 3 2 2 3 3 3 2 3 4 5 4 3 3 4 4 4 2 2 2 2 3 3 3 3 3 4 4 4 4 4 4 4
4 4 4 4 4 4 4 4 3 3 3 3 3 3 3 3 2 2 3 3 3 5 4 3 5 7 6 3 2 2 3 3 3 3 3 3 4 4 4 5 4 5 5 5
4 4 4 4 3 3 4 4 4 3 3 3 3 3 3 3 3 2 3 5 6 6 3 5 7 7 6 2 2 3 3 3 3 3 4 4 4 4 4 4 5 5 5 6
4 4 4 4 3 3 3 4 4 4 3 3 3 3 3 2 3 3 3 4 6 6 4 5 7 7 4 3 3 3 3 4 4 3 3 4 4 4 4 4 4 5 5 5
4 4 3 3 3 3 3 3 3 3 3 4 4 3 3 3 3 3 3 4 5 6 4 3 4 5 3 3 3 3 3 4 4 4 4 4 4 4 4 5 5 5 5 5
4 3 3 3 3 3 3 3 3 4 4 4 5 4 4 4 3 3 4 4 4 4 4 3 3 3 3 3 3 3 3 3 4 4 4 4 4 4 4 5 5 4 4 5
Wind_Direction
260 266 248 255 251 233 223 215 214 232 237 258 248 220 193 142 121 110 116 123 133 136 134 132 127 142 157 160 160 157 158 164 173 170 164 160 160 165 167 171 178 181 183 190
269 261 249 270 261 239 235 233 230 237 253 257 243 152 147 170 167 159 152 149 132 123 125 134 139 140 139 158 161 157 161 169 167 158 158 162 164 164 163 170 175 176 188 194
265 272 292 269 252 229 222 221 214 231 241 234 209 193 199 194 185 185 175 162 153 149 144 152 159 151 156 160 153 152 158 159 157 158 162 166 163 161 167 173 173 182 197 198
243 54 224 245 279 215 220 239 232 237 238 216 220 213 195 163 165 170 158 147 147 140 131 123 123 123 126 129 140 148 150 150 152 155 159 159 159 166 171 174 178 189 202 205
186 210 270 306 334 337 240 271 286 251 260 274 121 71 26 28 103 152 164 166 163 155 139 124 124 131 118 112 128 139 150 155 160 161 159 159 165 172 173 170 181 194 199 201
177 186 233 297 319 322 228 282 333 334 249 179 111 185 256 359 70 77 76 92 99 102 104 103 106 120 118 119 126 148 161 160 156 157 160 167 172 173 171 172 186 191 211 215
207 220 277 315 326 356 131 282 327 330 295 174 199 200 137 96 78 77 80 82 86 85 80 77 94 109 110 106 122 148 140 131 131 139 151 158 158 160 162 168 169 182 217 246
162 188 280 333 3 14 293 320 338 358 29 71 71 84 92 90 85 79 74 71 76 75 61 45 60 92 93 82 77 94 111 119 122 128 138 139 144 153 162 164 169 191 214 262
167 206 320 353 1 341 347 349 357 21 54 88 89 85 84 82 79 73 71 68 71 77 64 48 49 75 81 56 63 88 98 103 105 103 104 124 145 159 164 167 186 214 223 246
35 335 356 8 12 10 14 19 19 38 60 80 84 82 81 77 72 67 63 65 68 73 65 50 44 54 62 53 72 91 91 86 90 95 87 76 116 162 177 193 207 227 235 248
356 331 358 8 8 12 25 32 41 46 53 67 80 77 79 78 71 67 63 60 66 72 69 56 47 46 44 50 68 79 80 82 81 86 104 88 60 214 218 224 218 226 231 237
302 320 334 336 354 15 36 33 41 59 57 52 67 78 75 72 67 64 60 58 56 57 57 50 46 41 38 43 68 88 80 70 73 80 81 85 53 356 341 285 288 280 272 272
326 345 19 19 22 30 42 42 51 60 64 60 57 66 70 67 61 57 54 56 55 51 47 43 42 32 23 29 53 70 75 64 58 66 61 359 309 299 319 330 318 299 289 291
17 36 45 31 30 33 47 55 61 59 58 61 61 60 63 61 55 51 43 40 45 47 42 42 42 21 8 24 46 50 48 35 32 33 280 276 276 278 275 288 307 311 308 303
18 36 59 52 43 41 44 54 58 53 50 48 50 53 55 54 45 34 28 32 38 41 33 34 33 9 5 23 40 33 23 2 16 14 340 312 303 299 292 287 290 297 308 311
16 39 52 54 45 41 42 46 51 42 40 41 41 39 41 46 41 31 24 28 37 29 16 16 9 355 4 19 27 23 12 5 5 356 340 329 317 307 303 297 297 297 299 301
38 32 38 39 34 34 35 38 43 34 30 31 28 27 34 38 35 24 15 18 27 17 8 1 347 347 357 5 10 3 355 347 357 354 321 301 294 289 288 289 292 293 291 292
26 21 31 54 28 21 15 21 29 27 15 1 13 28 31 31 16 1 357 4 16 11 357 343 342 350 354 352 352 348 343 332 327 317 310 303 297 291 289 287 289 293 296 299
28 32 28 23 18 29 20 13 11 9 1 4 15 13 7 359 348 344 350 2 4 350 337 340 352 1 348 341 343 332 327 322 317 309 303 308 314 306 297 291 290 291 292 297
21 19 21 18 18 23 13 4 9 5 354 359 10 7 358 345 339 341 348 343 325 308 312 330 339 335 328 325 336 319 311 307 305 307 309 306 302 299 297 295 294 292 294 295
6 7 9 10 6 3 356 347 355 348 345 354 358 340 331 330 334 335 337 325 321 325 327 333 335 323 319 322 331 324 317 311 307 303 302 299 297 297 298 298 297 296 296 298
352 354 353 353 355 350 345 344 343 341 346 352 349 340 337 334 333 326 302 289 306 326 332 320 315 324 332 333 335 328 318 311 306 303 300 298 297 297 295 294 292 293 294 295
336 334 335 336 334 328 335 341 340 339 335 331 326 319 311 303 303 302 306 308 308 319 322 308 317 325 333 342 332 323 315 310 306 302 298 294 291 289 290 291 291 292 292 292
329 330 326 323 330 344 339 331 332 332 322 314 310 304 301 306 305 288 283 307 319 317 311 311 320 323 330 332 315 309 305 302 297 295 294 294 293 292 291 291 292 291 290 290
322 320 320 326 333 328 318 321 328 327 324 320 315 313 307 292 288 300 304 306 314 317 312 314 317 320 322 302 296 294 293 292 293 297 294 295 294 293 291 290 288 288 288 286
321 320 315 313 311 312 314 316 316 316 320 321 319 314 311 306 299 300 301 301 303 312 312 302 301 306 301 294 291 290 289 296 303 301 293 292 291 291 291 291 289 289 289 289
322 321 323 323 321 317 311 306 307 310 310 306 306 308 310 311 309 306 303 302 301 301 297 295 291 288 291 292 292 290 287 286 288 289 290 286 284 284 285 284 286 287 290 291
Height
1441 1437 1436 1436 1435 1434 1436 1436 1439 1434 1432 1426 1426 1426 1427 1427 1428 1428 1429 1430 1431 1433 1435 1437 1438 1441 1443 1445 1448 1451 1453 1457 1459 1462 1466 1468 1471 1473 1476 1478 1480 1482 1484 1485
1439 1434 1434 1434 1432 1431 1430 1430 1430 1429 1428 1424 1424 1425 1426 1427 1428 1428 1429 1430 1431 1433 1434 1436 1437 1439 1441 1444 1446 1449 1452 1455 1457 1460 1463 1465 1468 1470 1473 1475 1477 1478 1480 1482
1440 1435 1434 1435 1429 1428 1428 1426 1426 1426 1424 1423 1424 1425 1425 1426 1427 1427 1428 1429 1431 1432 1433 1435 1437 1438 1440 1442 1445 1447 1450 1452 1455 1457 1460 1462 1465 1467 1469 1471 1473 1474 1476 1478
1440 1439 1440 1429 1424 1424 1424 1423 1423 1422 1421 1421 1421 1422 1423 1425 1426 1426 1427 1428 1430 1431 1433 1434 1436 1437 1439 1441 1443 1445 1448 1450 1453 1455 1457 1460 1462 1464 1466 1468 1469 1471 1472 1474
1440 1440 1434 1428 1426 1425 1425 1424 1422 1421 1420 1421 1420 1421 1423 1424 1425 1426 1427 1428 1429 1430 1431 1433 1434 1436 1437 1439 1441 1444 1446 1448 1450 1452 1455 1457 1459 1461 1463 1464 1466 1467 1469 1470
1441 1439 1438 1431 1427 1423 1425 1426 1422 1420 1420 1419 1419 1423 1424 1424 1424 1425 1426 1427 1427 1429 1430 1432 1433 1435 1436 1438 1440 1442 1444 1446 1448 1450 1452 1454 1456 1458 1460 1461 1462 1464 1465 1466
1441 1440 1436 1432 1428 1424 1430 1428 1423 1420 1419 1418 1418 1419 1422 1422 1423 1424 1425 1426 1426 1427 1429 1430 1432 1434 1435 1437 1438 1440 1442 1444 1446 1448 1450 1452 1453 1455 1457 1458 1459 1460 1461 1462
1440 1444 1442 1433 1429 1431 1430 1426 1423 1420 1419 1419 1419 1419 1420 1422 1422 1423 1424 1425 1426 1426 1428 1430 1431 1432 1433 1435 1437 1439 1440 1442 1444 1446 1448 1449 1451 1452 1453 1454 1455 1456 1456 1457
1441 1443 1438 1435 1433 1432 1429 1427 1424 1422 1420 1420 1420 1421 1421 1422 1423 1424 1425 1426 1426 1427 1428 1430 1431 1432 1433 1434 1436 1437 1439 1440 1442 1444 1445 1447 1448 1449 1450 1450 1451 1452 1452 1453
1441 1440 1438 1436 1434 1431 1429 1427 1426 1424 1423 1422 1422 1423 1423 1424 1425 1426 1426 1427 1427 1427 1428 1430 1431 1432 1433 1434 1435 1436 1437 1439 1440 1441 1443 1444 1445 1446 1446 1447 1448 1448 1449 1449
1443 1441 1439 1437 1436 1434 1431 1429 1427 1426 1426 1425 1424 1425 1426 1426 1427 1428 1428 1429 1429 1429 1430 1431 1432 1433 1434 1434 1435 1435 1436 1438 1439 1440 1441 1441 1442 1443 1444 1444 1445 1445 1445 1446
1445 1443 1442 1441 1438 1436 1433 1431 1430 1429 1428 1428 1428 1428 1428 1429 1429 1430 1430 1431 1431 1431 1432 1433 1433 1434 1434 1435 1436 1436 1436 1437 1438 1438 1439 1439 1440 1440 1441 1442 1442 1442 1443 1443
1445 1444 1442 1441 1440 1438 1435 1434 1433 1432 1431 1431 1431 1431 1431 1431 1432 1432 1432 1433 1433 1433 1434 1434 1434 1435 1435 1436 1436 1436 1436 1436 1436 1437 1437 1437 1437 1437 1437 1439 1439 1439 1439 1439
1445 1444 1443 1442 1441 1439 1437 1436 1436 1435 1435 1434 1434 1434 1434 1434 1434 1434 1434 1434 1435 1435 1435 1435 1435 1435 1435 1435 1435 1435 1435 1435 1435 1435 1435 1435 1435 1435 1435 1435 1435 1435 1435 1435
1447 1445 1445 1444 1443 1441 1440 1439 1438 1438 1438 1437 1437 1437 1436 1436 1436 1436 1436 1436 1436 1436 1435 1435 1435 1435 1435 1435 1434 1434 1434 1434 1433 1433 1433 1433 1433 1433 1433 1432 1432 1431 1431 1431
1448 1447 1446 1445 1444 1443 1442 1441 1440 1440 1440 1440 1439 1439 1438 1438 1438 1437 1437 1437 1436 1436 1435 1435 1435 1434 1434 1433 1433 1432 1432 1432 1432 1431 1431 1431 1431 1430 1430 1429 1429 1428 1427 1427
1448 1447 1447 1446 1445 1444 1444 1443 1442 1442 1442 1441 1440 1440 1439 1439 1438 1438 1437 1437 1437 1436 1435 1435 1434 1433 1433 1432 1431 1431 1430 1430 1430 1429 1429 1428 1428 1427 1427 1426 1425 1425 1424 1423
1450 1449 1448 1447 1446 1445 1445 1444 1444 1443 1443 1442 1442 1441 1440 1439 1438 1438 1437 1437 1436 1435 1435 1434 1433 1432 1431 1430 1430 1429 1428 1428 1427 1427 1426 1425 1425 1424 1424 1423 1422 1421 1421 1420
1450 1449 1448 1447 1447 1446 1445 1444 1444 1443 1443 1442 1442 1441 1440 1439 1438 1437 1437 1436 1435 1434 1433 1432 1431 1430 1429 1429 1428 1427 1426 1425 1425 1424 1423 1423 1422 1421 1421 1420 1419 1418 1417 1416
1451 1450 1448 1447 1447 1446 1445 1444 1444 1443 1442 1442 1441 1440 1439 1439 1438 1437 1436 1434 1434 1433 1432 1431 1429 1428 1427 1426 1426 1425 1424 1423 1422 1421 1421 1420 1419 1418 1418 1417 1416 1415 1414 1412
1451 1449 1448 1447 1446 1446 1445 1444 1443 1442 1441 1440 1439 1439 1438 1437 1436 1435 1434 1432 1432 1431 1429 1428 1427 1426 1425 1424 1423 1422 1421 1420 1419 1419 1418 1417 1416 1415 1414 1413 1412 1411 1410 1408
1451 1449 1448 1447 1445 1445 1444 1443 1442 1441 1440 1439 1438 1437 1436 1435 1434 1433 1432 1431 1429 1428 1427 1426 1425 1424 1422 1421 1420 1419 1418 1417 1416 1415 1414 1413 1412 1411 1410 1409 1408 1407 1406 1404
1450 1449 1447 1446 1445 1443 1442 1441 1440 1439 1438 1437 1436 1435 1434 1433 1431 1430 1429 1428 1427 1425 1424 1423 1422 1421 1420 1419 1417 1416 1415 1414 1413 1412 1411 1410 1409 1408 1407 1406 1404 1403 1402 1400
1449 1447 1446 1445 1443 1442 1440 1439 1438 1437 1436 1435 1434 1433 1431 1430 1428 1428 1426 1425 1424 1422 1421 1420 1419 1418 1417 1416 1415 1414 1412 1411 1410 1409 1408 1407 1406 1405 1403 1402 1400 1399 1398 1396
1447 1446 1444 1443 1441 1439 1438 1437 1436 1434 1433 1432 1431 1430 1428 1427 1426 1424 1423 1422 1420 1419 1418 1417 1416 1415 1413 1412 1411 1410 1409 1408 1407 1406 1405 1404 1402 1401 1400 1398 1397 1395 1394 1392
1445 1444 1442 1440 1439 1438 1436 1435 1433 1431 1430 1428 1427 1426 1425 1423 1422 1421 1419 1418 1417 1415 1414 1413 1412 1411 1410 1409 1408 1407 1406 1405 1404 1402 1401 1400 1399 1397 1396 1394 1393 1392 1390 1389
1443 1441 1439 1438 1436 1435 1433 1432 1430 1429 1427 1426 1424 1423 1421 1420 1418 1417 1416 1414 1413 1412 1410 1409 1408 1407 1406 1405 1404 1403 1402 1401 1400 1399 1398 1396 1395 1394 1392 1391 1390 1388 1387 1385